Location: ????????
(56.1167°N, 38.6333°E)
Time: 11:21:49
(UTC+00:00)

Cosmos 1833 - Pass Details

Date: 18 November 2025
Orbit: 833 x 865 km, 70.9° (Epoch: 10 December)

Event Time Altitude Azimuth Distance (km) Brightness Sun altitude
Rises 15:58:31 0° 324° (NW) 3,420 7.8 -22.6°
Reaches altitude 10° 16:01:01 10° 328° (NNW) 2,486 7.0 -23.0°
Maximum altitude 16:06:39 57° 47° (NE) 1,008 4.3 -23.7°
Enters shadow 16:07:05 55° 66° (ENE) 1,024 4.2 -23.8°
